Date,TemperatureHighF,TemperatureAvgF,TemperatureLowF,DewpointHighF,DewpointAvgF,DewpointLowF,HumidityHigh,HumidityAvg,HumidityLow,PressureMaxIn,PressureMinIn,WindSpeedMaxMPH,WindSpeedAvgMPH,GustSpeedMaxMPH,PrecipitationSumIn
2014-1-1,11.2,6.9,2.6,6.0,1.2,-5.0,86,78,69,30.40,30.31,11,4,15,0.00
2014-1-2,10.9,6.6,-4.5,5.0,1.5,-8.0,86,80,71,30.46,30.27,9,3,16,0.00
2014-1-3,18.3,5.0,-13.1,14.0,0.3,-17.0,87,81,71,30.46,29.84,13,2,22,0.00
2014-1-4,30.4,25.6,17.8,28.0,20.6,10.0,92,81,71,30.09,29.74,10,3,15,0.00
2014-1-5,17.6,7.2,-6.2,10.0,-1.9,-15.0,75,66,57,30.19,30.08,22,6,26,0.00
2014-1-6,-6.5,-11.8,-15.3,-15.0,-19.7,-24.0,75,68,59,30.27,30.11,18,8,24,0.00
2014-1-7,1.6,-6.7,-14.1,-8.0,-13.4,-20.0,81,73,64,30.36,30.25,7,3,12,0.00
2014-1-8,9.2,-1.9,-11.1,-1.0,-7.8,-15.0,85,77,62,30.56,30.34,6,1,8,0.00
2014-1-9,24.3,4.4,-14.7,22.0,0.1,-19.0,90,82,68,30.58,30.16,3,1,7,0.00
2014-1-10,38.0,31.7,24.4,37.0,30.5,22.0,96,95,91,30.16,29.46,6,1,7,0.37
2014-1-11,37.4,33.6,29.7,36.0,31.1,26.0,97,90,84,29.74,29.40,13,5,18,0.01
2014-1-12,40.5,33.7,26.9,34.0,29.9,25.0,93,86,73,29.78,29.54,9,2,16,0.00
2014-1-13,42.5,35.6,24.6,35.0,31.1,21.0,91,84,72,29.72,29.51,9,2,14,0.00
2014-1-14,35.0,27.1,17.5,33.0,24.2,15.0,94,89,78,29.90,29.52,16,5,27,0.00
2014-1-15,18.5,14.3,11.2,14.0,9.3,6.0,87,80,74,30.09,29.74,11,4,19,0.00
2014-1-16,34.4,26.1,15.1,32.0,22.2,10.0,93,85,72,29.73,29.43,12,4,18,0.01
2014-1-17,19.7,14.3,6.4,16.0,9.6,2.0,87,81,73,29.97,29.71,14,4,14,0.00
2014-1-18,19.7,12.0,4.5,17.0,8.6,1.0,91,86,76,29.93,29.77,6,1,8,0.00
2014-1-19,34.5,24.2,8.5,30.0,19.9,6.0,90,83,74,29.86,29.51,14,3,16,0.00
2014-1-20,34.7,20.7,7.5,30.0,16.3,-1.0,89,83,63,30.20,29.61,14,4,22,0.00
2014-1-21,7.2,1.4,-3.8,-1.0,-5.5,-9.0,84,73,65,30.38,30.21,9,2,19,0.00
2014-1-22,12.1,5.3,-0.6,8.0,-0.5,-9.0,84,77,65,30.23,29.91,16,5,22,0.00
2014-1-23,6.8,0.6,-6.8,-2.0,-7.0,-13.0,76,71,64,30.61,30.23,13,6,22,0.00
2014-1-24,29.2,13.1,-7.3,27.0,6.2,-13.0,92,74,60,30.52,29.42,11,4,21,0.00
2014-1-25,32.7,15.7,5.8,29.0,3.0,-5.0,92,58,36,29.86,29.40,22,8,30,0.00
2014-1-26,25.5,13.5,5.1,20.0,7.8,-3.0,88,78,58,29.84,29.39,20,5,30,0.00
2014-1-27,4.8,-3.4,-10.1,-4.0,-12.6,-17.0,76,65,54,30.45,29.86,18,7,25,0.00
2014-1-28,2.6,-5.5,-13.5,-8.0,-12.6,-19.0,79,72,60,30.45,30.24,9,4,17,0.00
2014-1-29,22.6,10.1,-2.8,11.0,0.8,-8.0,79,67,51,30.23,29.91,9,3,15,0.00
2014-1-30,31.0,25.3,19.8,28.0,18.7,10.0,91,76,61,29.94,29.58,9,3,19,0.00
2014-1-31,19.0,12.5,8.1,14.0,5.5,2.0,82,73,67,30.17,29.94,5,2,12,0.00
2014-2-1,19.7,15.4,9.6,17.0,11.8,5.0,90,86,79,30.13,29.95,7,1,11,0.00
2014-2-2,17.2,10.8,-2.2,11.0,4.7,-6.0,86,77,62,30.34,30.13,9,2,11,0.00
2014-2-3,18.7,4.7,-12.3,6.0,-2.4,-16.0,86,74,55,30.41,30.34,7,1,10,0.00
2014-2-4,18.5,11.4,0.5,13.0,5.9,-4.0,86,78,71,30.47,30.21,8,2,11,0.00
2014-2-5,18.7,15.7,7.2,16.0,10.9,2.0,91,81,71,30.45,30.18,12,4,23,0.00
2014-2-6,6.9,1.8,-4.3,2.0,-4.3,-8.0,85,76,64,30.44,30.35,12,3,14,0.00
2014-2-7,13.5,4.8,-1.9,3.0,-2.2,-6.0,83,73,61,30.37,30.31,10,3,18,0.00
2014-2-8,16.7,6.6,-4.5,12.0,2.6,-8.0,89,83,77,30.34,30.17,3,0,6,0.00
2014-2-9,17.8,8.5,-3.1,10.0,2.3,-6.0,89,76,64,30.35,30.14,9,3,16,0.00
2014-2-10,8.9,2.2,-4.7,-3.0,-6.1,-11.0,79,68,58,30.52,30.34,9,3,15,0.00
2014-2-11,15.4,1.7,-11.5,1.0,-6.2,-16.0,84,71,50,30.56,30.39,6,1,8,0.00
2014-2-12,21.6,13.4,0.9,16.0,7.7,-5.0,83,78,73,30.39,30.03,6,1,7,0.00
2014-2-13,30.6,24.4,18.5,26.0,18.2,11.0,87,77,65,29.99,29.50,14,4,27,0.00
2014-2-14,19.4,9.1,11.4,14.0,-31.2,-99.9,84,50,68,29.99,29.61,11,-351,13,0.00
2014-2-15,21.3,13.3,-0.8,14.0,6.4,-5.0,88,74,60,30.12,29.97,8,1,13,0.00
2014-2-16,22.3,17.8,13.9,16.0,12.7,8.0,92,81,67,30.30,29.98,8,2,13,0.00
2014-2-17,25.4,22.5,15.9,23.0,19.5,12.0,92,88,80,30.27,29.71,9,2,15,0.00
2014-2-18,47.4,33.5,18.3,33.0,26.7,16.0,94,77,55,29.90,29.59,10,2,16,0.25
2014-2-19,45.1,35.7,30.0,32.0,28.0,24.0,88,75,50,29.93,29.65,6,1,10,0.00
2014-2-20,42.7,35.9,33.9,42.0,33.5,29.0,97,91,80,29.88,29.10,17,4,21,0.28
2014-2-21,36.2,25.1,20.8,32.0,18.4,12.0,86,76,66,29.78,29.16,20,9,30,0.00
2014-2-22,29.1,21.4,15.6,16.0,12.2,9.0,77,68,57,30.09,29.78,9,4,15,0.00
2014-2-23,24.9,16.3,10.3,12.0,7.1,4.0,79,68,54,30.23,30.09,11,4,17,0.00
2014-2-24,22.8,15.5,7.7,11.0,6.4,3.0,83,68,53,30.28,30.21,14,4,18,0.00
2014-2-25,17.0,12.4,3.8,8.0,2.4,-5.0,84,65,48,30.26,30.15,13,6,19,0.00
2014-2-26,15.7,6.1,-2.8,12.0,-3.2,-9.0,86,66,50,30.27,29.65,13,5,23,0.00
2014-2-27,13.2,3.2,-5.5,9.0,-9.9,-14.0,84,55,38,30.23,29.68,22,5,30,0.00
2014-2-28,25.5,10.9,-7.7,20.0,3.1,-13.0,89,71,54,30.23,30.01,12,1,21,0.00
2014-3-1,21.7,13.5,7.4,19.0,8.5,3.0,90,80,62,30.41,30.07,11,2,14,0.00
2014-3-2,7.8,4.1,-0.5,2.0,-8.2,-14.0,80,58,43,30.52,30.40,12,3,16,0.00
2014-3-3,17.7,6.8,-6.1,6.0,-3.8,-15.0,72,62,54,30.57,30.39,10,2,13,0.00
2014-3-4,23.5,16.9,10.7,13.0,9.4,5.0,86,73,57,30.39,30.21,5,2,9,0.00
2014-3-5,23.3,17.2,8.7,15.0,10.9,5.0,91,77,58,30.50,30.29,13,2,15,0.00
2014-3-6,31.2,17.2,0.0,18.0,10.6,-3.0,89,76,58,30.48,30.07,7,1,9,0.04
2014-3-7,46.3,33.3,17.4,33.0,24.9,14.0,86,72,53,30.07,29.84,8,2,12,0.05
2014-3-8,33.2,27.4,20.2,22.0,18.0,-99.9,87,73,64,30.24,30.19,9,2,11,0.00
2014-3-9,40.3,29.6,17.1,35.0,23.3,14.0,88,78,59,30.22,29.74,8,3,19,0.00
2014-3-10,53.2,44.8,38.4,38.0,36.2,34.0,84,72,57,29.73,29.59,8,3,13,0.00
2014-3-11,46.8,40.1,35.0,39.0,35.7,32.0,93,84,67,29.80,29.64,11,2,14,0.06
2014-3-12,35.0,15.8,14.0,31.0,-31.6,-99.9,87,43,68,30.12,29.76,12,-434,19,0.00
2014-3-13,39.3,26.5,12.0,34.0,21.2,8.0,91,80,66,30.12,29.77,12,2,14,0.00
2014-3-14,49.9,42.3,36.0,36.0,33.7,32.0,90,72,54,29.80,29.51,14,5,36,0.00
2014-3-15,38.9,33.3,25.4,32.0,23.8,20.0,82,69,54,30.33,29.80,11,3,19,0.00
2014-3-16,25.4,20.1,14.3,19.0,10.6,7.0,78,67,48,30.43,30.20,11,4,18,0.00
2014-3-17,37.9,25.4,12.2,23.0,15.5,9.0,89,69,37,30.19,29.76,8,1,15,0.00
2014-3-18,50.8,37.1,26.5,35.0,30.7,23.0,91,79,53,29.86,29.68,6,2,13,0.00
2014-3-19,39.6,36.5,34.2,36.0,33.2,25.0,96,88,70,29.95,29.55,14,5,20,0.05
2014-3-20,44.2,35.7,28.3,29.0,26.2,23.0,88,70,49,30.04,29.96,10,3,15,0.00
2014-3-21,50.9,37.9,24.6,39.0,31.8,23.0,95,79,64,30.00,29.70,16,2,24,0.00
2014-3-22,39.5,33.0,22.8,31.0,22.3,10.0,81,66,44,30.38,29.87,13,6,25,0.00
2014-3-23,28.7,22.2,16.1,11.0,9.1,6.0,72,58,45,30.48,30.37,14,4,17,0.00
2014-3-24,35.5,26.7,17.4,26.0,15.4,10.0,92,64,43,30.40,30.05,11,3,22,0.00
2014-3-25,26.3,22.0,18.8,24.0,11.4,6.0,92,65,45,30.26,30.02,14,6,26,0.00
2014-3-26,38.5,26.9,11.9,25.0,15.2,6.0,85,63,47,30.31,29.91,9,2,15,0.00
2014-3-27,48.7,40.4,35.1,47.0,36.2,24.0,95,86,57,29.90,29.37,11,3,15,0.25
2014-3-28,49.1,37.0,32.8,48.0,32.9,29.0,95,85,76,30.18,29.36,12,2,19,0.12
2014-3-29,46.4,36.8,28.8,30.0,27.9,21.0,91,72,48,30.27,30.18,12,2,14,0.00
2014-3-30,57.8,41.8,24.8,41.0,31.3,21.0,87,68,49,30.25,29.97,7,2,14,0.00
2014-3-31,64.3,54.0,41.9,46.0,40.4,36.0,79,62,42,29.99,29.58,17,3,24,0.00
2014-4-1,55.8,38.2,27.9,45.0,27.7,21.0,76,67,52,30.07,29.56,20,7,23,0.00
2014-4-2,53.4,38.8,28.1,31.0,27.1,23.0,88,65,39,30.19,30.08,10,2,13,0.00
2014-4-3,39.4,38.1,36.3,34.0,30.4,26.0,89,74,62,30.08,29.67,12,4,17,0.02
2014-4-4,39.6,36.6,34.5,38.0,32.8,27.0,96,86,73,29.99,29.43,19,6,30,0.03
2014-4-5,53.7,41.1,28.0,32.0,28.3,25.0,90,64,37,30.19,30.00,8,2,14,0.00
2014-4-6,61.0,46.9,31.3,37.0,33.1,27.0,85,61,40,30.11,29.91,8,2,14,0.00
2014-4-7,62.7,50.4,37.5,46.0,37.6,33.0,88,64,40,29.91,29.61,9,1,13,0.00
2014-4-8,58.1,49.5,40.7,45.0,39.0,35.0,89,70,44,29.91,29.63,11,3,22,0.00
2014-4-9,63.7,49.8,32.2,35.0,32.1,29.0,92,55,28,29.99,29.73,9,3,19,0.00
2014-4-10,62.6,55.5,47.9,41.0,31.7,21.0,57,43,20,29.91,29.60,15,4,18,0.00
2014-4-11,67.9,53.9,39.3,37.0,32.3,26.0,76,47,24,30.00,29.89,9,2,23,0.00
2014-4-12,62.2,50.8,45.6,55.0,41.7,30.0,92,72,53,29.99,29.65,10,2,15,0.12
2014-4-13,55.3,49.1,43.9,53.0,48.0,43.0,97,96,91,29.77,29.45,18,2,20,1.89
2014-4-14,45.0,34.9,29.3,44.0,31.1,22.0,97,86,70,30.01,29.42,14,5,26,0.36
2014-4-15,37.6,30.5,24.2,23.0,17.5,12.0,80,60,40,30.20,30.01,13,3,14,0.00
2014-4-16,52.4,40.4,27.1,32.0,28.2,21.0,85,64,44,30.26,30.04,14,2,22,0.00
2014-4-17,57.0,47.8,40.5,42.0,36.2,29.0,82,65,55,30.26,30.02,9,3,15,0.00
2014-4-18,55.7,43.3,34.3,36.0,33.0,29.0,90,70,37,30.36,30.26,6,2,13,0.00
2014-4-19,67.8,50.0,34.9,43.0,35.4,28.0,78,60,35,30.38,30.15,10,2,14,0.00
2014-4-20,78.6,64.2,50.4,51.0,44.2,39.0,68,50,34,30.18,29.93,7,2,12,0.00
2014-4-21,67.8,63.9,58.0,61.0,53.0,44.0,88,69,50,29.92,29.74,8,2,19,0.08
2014-4-22,57.3,49.2,40.9,43.0,33.3,29.0,73,56,35,30.08,29.81,16,4,21,0.00
2014-4-23,56.8,44.8,31.8,33.0,30.2,27.0,90,60,36,30.17,30.03,7,1,12,0.05
2014-4-24,58.8,47.8,35.7,47.0,38.2,28.0,89,71,52,30.10,29.64,8,2,13,0.24
2014-4-25,66.6,54.2,44.8,47.0,41.9,37.0,93,67,35,29.80,29.64,16,4,22,0.02
2014-4-26,57.3,47.0,40.6,40.0,35.0,31.0,76,64,47,30.03,29.79,11,4,15,0.00
2014-4-27,53.6,46.0,41.1,42.0,37.6,34.0,93,73,50,30.05,29.82,14,5,27,0.19
2014-4-28,51.6,45.8,41.0,43.0,40.6,37.0,95,82,64,29.83,29.56,15,6,24,0.66
2014-4-29,51.8,46.6,42.0,50.0,44.9,40.0,96,94,86,29.61,29.47,8,2,16,0.42
2014-4-30,49.9,46.8,43.5,48.0,43.0,38.0,95,86,76,29.73,29.61,7,2,10,0.00
2014-5-1,49.3,44.7,39.7,45.0,41.3,37.0,93,88,79,29.77,29.62,7,3,13,0.03
2014-5-2,53.2,48.8,45.9,46.0,43.8,42.0,90,83,71,29.77,29.60,7,2,12,0.02
2014-5-3,63.4,54.5,45.6,46.0,41.1,36.0,93,65,37,29.84,29.59,20,6,29,0.01
2014-5-4,60.4,52.2,45.4,38.0,31.7,24.0,69,48,27,30.06,29.85,9,3,14,0.00
2014-5-5,58.9,49.4,43.0,38.0,35.0,27.0,79,59,33,30.04,29.93,9,3,15,0.00
2014-5-6,63.2,52.1,40.2,43.0,38.8,34.0,80,62,45,30.02,29.87,14,3,18,0.00
2014-5-7,62.6,55.3,48.0,51.0,45.4,39.0,87,70,58,29.87,29.75,7,3,20,0.00
2014-5-8,88.2,71.5,51.2,67.0,59.9,49.0,97,69,42,29.77,29.65,10,2,16,0.00
2014-5-9,73.0,63.6,54.9,64.0,54.2,46.0,94,72,56,29.80,29.55,15,5,20,0.06
2014-5-10,74.6,61.0,45.6,50.0,45.4,43.0,91,60,35,29.91,29.80,7,2,13,0.00
2014-5-11,80.3,67.5,55.8,67.0,56.8,44.0,92,70,54,29.89,29.79,7,1,14,0.34
2014-5-12,76.7,68.5,61.7,72.0,66.2,60.0,97,92,79,29.85,29.71,12,1,25,2.77
2014-5-13,65.6,57.6,51.9,65.0,53.0,43.0,97,85,68,30.11,29.72,10,4,15,0.10
2014-5-14,56.9,52.0,46.7,44.0,41.3,38.0,81,68,51,30.19,30.00,9,2,14,0.00
2014-5-15,55.4,47.5,39.9,45.0,38.3,35.0,91,72,46,30.04,29.95,14,3,17,0.12
2014-5-16,52.0,45.6,39.3,38.0,34.3,31.0,87,67,46,30.06,30.00,8,2,11,0.00
2014-5-17,61.7,51.9,39.1,37.0,33.8,29.0,83,53,31,30.11,30.03,8,2,15,0.00
2014-5-18,72.6,60.3,47.3,44.0,39.4,36.0,66,48,30,30.16,30.08,8,2,14,0.00
2014-5-19,65.4,58.6,49.4,51.0,46.1,42.0,80,64,49,30.16,29.85,7,2,15,0.15
2014-5-20,86.8,72.6,61.5,68.0,61.1,49.0,85,68,48,29.87,29.73,6,2,12,0.00
2014-5-21,85.3,72.2,60.1,66.0,56.5,45.0,95,63,26,29.94,29.73,13,3,22,0.00
2014-5-22,72.9,63.8,53.8,52.0,49.0,47.0,82,61,40,30.09,29.95,7,2,14,0.00
2014-5-23,72.3,61.4,51.6,53.0,48.4,42.0,91,65,46,30.18,30.09,8,1,12,0.00
2014-5-24,78.7,64.3,47.3,52.0,47.8,42.0,93,59,34,30.22,30.07,6,1,7,0.00
2014-5-25,85.1,70.0,50.1,55.0,51.2,47.0,91,56,31,30.10,29.93,8,1,10,0.00
2014-5-26,84.1,73.0,67.1,72.0,65.0,54.0,95,77,59,29.96,29.83,6,1,11,0.24
2014-5-27,83.8,70.3,60.3,71.0,66.7,59.0,96,89,60,29.93,29.81,8,1,13,0.53
2014-5-28,74.7,63.0,53.7,59.0,54.2,51.0,95,75,51,30.05,29.88,11,2,13,0.18
2014-5-29,80.9,66.6,53.8,64.0,55.9,50.0,89,70,46,30.11,30.03,6,1,11,0.00
2014-5-30,84.1,69.5,53.0,63.0,56.3,51.0,93,66,35,30.15,30.07,7,1,10,0.00
2014-5-31,89.7,75.0,58.2,61.0,56.5,54.0,87,57,30,30.14,29.97,5,1,10,0.00
2014-6-1,89.9,77.2,69.1,72.0,63.5,56.0,91,64,49,30.00,29.75,8,2,15,0.08
2014-6-2,80.7,74.3,67.0,71.0,68.1,65.0,95,82,62,29.80,29.66,10,2,18,0.57
2014-6-3,79.0,70.7,63.5,66.0,56.5,52.0,81,62,43,29.92,29.73,10,3,17,0.00
2014-6-4,71.0,64.9,58.6,62.0,59.3,57.0,93,82,68,29.89,29.74,3,0,7,0.09
2014-6-5,79.5,67.5,52.4,58.0,52.1,47.0,97,62,36,29.97,29.86,4,1,7,0.01
2014-6-6,84.2,71.9,60.7,58.0,52.9,50.0,74,53,35,29.95,29.88,7,1,12,0.00
2014-6-7,83.4,69.8,57.3,64.0,58.3,53.0,93,70,42,29.94,29.79,7,1,13,0.06
2014-6-8,75.6,65.2,56.9,61.0,53.3,43.0,93,69,36,30.02,29.85,7,2,13,0.00
2014-6-9,78.8,65.6,53.7,61.0,52.2,43.0,79,63,51,30.02,29.87,6,2,10,0.00
2014-6-10,68.8,63.6,58.3,58.0,53.1,46.0,77,69,62,29.93,29.78,5,2,8,0.00
2014-6-11,66.1,61.8,58.2,62.0,59.1,55.0,95,91,75,29.78,29.69,10,3,17,0.38
2014-6-12,77.5,67.3,58.7,66.0,57.6,48.0,97,73,50,29.84,29.70,10,2,18,0.00
2014-6-13,74.7,63.4,54.6,49.0,43.3,36.0,79,51,27,29.98,29.84,15,4,19,0.00
2014-6-14,81.2,67.8,51.9,54.0,50.7,47.0,93,59,33,30.04,29.86,8,1,12,0.00
2014-6-15,85.4,73.7,62.0,68.0,58.4,49.0,77,59,52,29.89,29.69,11,2,18,0.00
2014-6-16,88.6,77.5,64.1,68.0,63.6,60.0,90,65,41,29.97,29.75,6,1,11,0.00
2014-6-17,86.7,76.0,66.8,72.0,68.0,65.0,96,78,53,29.84,29.65,6,2,14,1.26
2014-6-18,76.8,71.4,63.5,71.0,67.1,62.0,96,86,75,29.98,29.75,11,2,27,0.57
2014-6-19,72.4,67.2,63.9,68.0,65.1,62.0,97,93,84,30.06,29.95,6,1,9,1.02
2014-6-20,82.7,72.2,63.4,71.0,67.3,62.0,98,86,65,29.95,29.86,7,2,13,0.61
2014-6-21,79.0,68.1,62.6,72.0,66.1,61.0,97,93,79,29.93,29.79,5,1,7,0.01
2014-6-22,83.9,71.8,62.7,70.0,66.9,62.0,98,86,62,29.88,29.76,4,1,7,0.00
2014-6-23,81.5,72.1,63.3,71.0,67.1,62.0,95,85,67,29.80,29.73,5,1,8,0.02
2014-6-24,85.9,76.4,68.3,70.0,67.2,61.0,96,75,45,29.84,29.77,6,1,12,0.00
2014-6-25,74.8,69.1,60.7,69.0,65.2,59.0,95,87,75,30.00,29.83,5,1,8,0.00
2014-6-26,82.0,67.6,57.3,68.0,61.9,56.0,96,83,61,30.05,29.93,6,1,8,0.00
2014-6-27,88.4,76.0,62.7,72.0,66.6,60.0,92,74,55,29.98,29.85,6,2,11,0.00
2014-6-28,86.9,78.7,69.4,74.0,71.2,66.0,90,78,64,29.93,29.78,6,2,12,0.00
2014-6-29,84.3,76.3,66.1,73.0,69.8,65.0,96,81,65,29.88,29.74,6,2,12,0.28
2014-6-30,85.4,74.6,66.8,77.0,70.1,65.0,96,86,72,29.80,29.51,16,2,16,0.87
2014-7-1,78.8,70.6,64.4,66.0,64.1,61.0,96,81,61,29.70,29.57,13,3,18,0.14
2014-7-2,66.2,62.1,58.2,61.0,58.6,56.0,93,88,79,30.00,29.70,9,2,15,0.02
2014-7-3,76.2,66.1,54.3,58.0,53.8,49.0,96,68,42,30.15,29.98,6,1,12,0.00
2014-7-4,80.6,69.4,57.0,59.0,53.5,46.0,90,61,30,30.26,30.15,7,1,9,0.00
2014-7-5,77.0,68.9,59.9,62.0,57.8,51.0,81,68,55,30.20,29.96,5,1,14,0.00
2014-7-6,81.0,73.6,63.9,75.0,68.3,59.0,92,83,78,29.96,29.61,5,1,11,0.24
2014-7-7,84.9,77.1,69.2,72.0,66.9,62.0,96,73,49,29.69,29.55,7,2,11,0.00
2014-7-8,78.8,71.9,66.3,67.0,62.5,58.0,96,74,51,29.77,29.54,14,4,20,1.09
2014-7-9,75.4,68.2,60.2,60.0,56.6,52.0,90,68,45,30.01,29.77,13,2,18,0.00
2014-7-10,82.5,69.9,56.3,63.0,58.8,55.0,96,71,46,30.12,30.01,5,1,10,0.00
2014-7-11,79.5,70.9,59.6,63.0,59.1,53.0,82,67,51,30.14,30.02,5,1,10,0.00
2014-7-12,77.5,73.0,67.9,73.0,68.3,62.0,96,85,76,30.03,29.77,4,0,11,1.19
2014-7-13,83.6,72.9,63.7,70.0,64.6,60.0,96,77,48,29.88,29.80,8,2,19,0.01
2014-7-14,77.4,67.0,58.6,61.0,55.3,49.0,92,68,39,29.84,29.75,10,2,17,0.00
2014-7-15,65.7,60.5,56.1,59.0,54.3,51.0,89,80,69,29.94,29.81,9,3,13,0.02
2014-7-16,73.4,62.4,50.8,56.0,52.1,49.0,95,72,44,30.01,29.94,6,1,9,0.00
2014-7-17,78.9,65.9,51.0,59.0,54.0,50.0,96,70,39,30.07,30.00,5,0,8,0.00
2014-7-18,82.2,70.0,56.3,63.0,59.5,55.0,95,71,47,30.12,30.02,4,0,7,0.00
2014-7-19,81.9,71.7,61.0,63.0,60.2,58.0,91,69,47,30.04,29.95,5,1,7,0.00
2014-7-20,81.8,71.5,58.9,67.0,62.7,57.0,94,75,56,30.01,29.93,4,1,9,0.00
2014-7-21,87.6,76.1,62.5,72.0,66.8,60.0,93,74,58,30.02,29.95,4,1,9,0.00
2014-7-22,89.5,80.3,71.8,81.0,72.5,67.0,87,77,68,29.96,29.82,10,2,11,0.00
2014-7-23,76.7,69.8,59.8,67.0,58.9,53.0,89,69,49,30.12,29.97,9,3,15,0.00
2014-7-24,78.8,66.3,53.5,59.0,54.5,51.0,92,68,47,30.15,29.96,5,1,7,0.00
2014-7-25,75.5,66.4,57.4,64.0,58.0,50.0,86,75,65,30.02,29.83,5,1,11,0.00
2014-7-26,82.0,72.9,62.5,73.0,67.1,60.0,94,82,67,29.85,29.72,5,1,10,0.00
2014-7-27,80.6,71.8,62.9,70.0,63.9,58.0,97,78,50,29.90,29.65,12,3,26,0.09
2014-7-28,74.0,65.2,55.7,58.0,54.0,51.0,87,69,49,30.07,29.90,11,3,19,0.00
2014-7-29,79.2,68.6,60.1,59.0,56.9,55.0,89,68,46,30.01,29.92,7,2,15,0.00
2014-7-30,76.8,67.1,59.3,61.0,57.7,53.0,93,74,45,30.01,29.94,6,1,10,0.00
2014-7-31,82.6,71.5,59.0,66.0,60.6,56.0,91,70,46,29.97,29.93,9,1,14,0.00
2014-8-1,85.4,71.3,59.7,66.0,61.6,57.0,92,74,46,30.05,29.96,6,1,11,0.16
2014-8-2,85.2,71.2,57.4,67.0,62.6,56.0,96,76,52,30.12,30.03,4,0,10,0.01
2014-8-3,86.2,74.5,62.9,71.0,65.5,61.0,96,76,46,30.09,29.98,9,1,12,0.00
2014-8-4,82.8,69.7,64.8,70.0,65.4,63.0,96,86,61,30.05,29.98,6,0,10,0.10
2014-8-5,80.7,70.7,63.2,67.0,64.8,61.0,97,83,62,30.03,29.98,5,1,7,0.00
2014-8-6,82.7,70.0,57.6,65.0,58.0,53.0,96,70,38,30.04,29.99,3,0,5,0.00
2014-8-7,83.3,70.1,57.4,62.0,58.8,56.0,94,70,46,30.07,29.99,6,1,11,0.00
2014-8-8,83.4,70.9,58.8,65.0,58.8,55.0,94,69,39,30.06,30.01,5,1,9,0.00
2014-8-9,81.7,71.0,62.1,65.0,60.1,55.0,92,71,40,30.07,30.00,7,1,10,0.00
2014-8-10,82.3,71.7,61.4,66.0,61.4,58.0,89,72,49,30.04,29.92,6,1,11,0.00
2014-8-11,82.8,71.2,63.8,69.0,64.5,60.0,91,80,55,29.93,29.71,7,1,11,0.12
2014-8-12,73.6,65.3,57.6,62.0,57.1,54.0,93,76,56,29.93,29.75,10,2,16,0.04
2014-8-13,82.0,68.8,55.2,64.0,58.5,52.0,91,72,50,30.00,29.93,7,1,15,0.00
2014-8-14,74.0,63.3,54.3,57.0,51.3,44.0,92,69,36,30.09,30.00,8,1,10,0.00
2014-8-15,81.5,66.1,50.1,63.0,56.0,48.0,94,72,50,30.05,29.89,7,1,10,0.00
2014-8-16,85.7,73.6,61.9,71.0,66.1,59.0,95,78,59,29.89,29.79,5,1,10,0.00
2014-8-17,79.4,68.8,61.4,69.0,63.1,59.0,95,83,63,29.97,29.87,6,1,9,0.00
2014-8-18,83.8,71.2,59.6,71.0,64.6,58.0,96,81,63,29.90,29.69,4,1,12,0.00
2014-8-19,84.0,74.2,65.7,74.0,67.3,63.0,98,80,55,29.71,29.62,8,2,14,0.55
2014-8-20,85.8,75.4,64.3,71.0,67.5,63.0,96,77,57,29.88,29.71,5,1,11,0.00
2014-8-21,79.2,72.1,67.6,75.0,70.1,66.0,96,93,84,29.92,29.82,3,0,12,0.23
2014-8-22,91.7,79.0,72.0,79.0,74.4,71.0,98,87,62,29.91,29.82,5,1,10,0.00
2014-8-23,81.0,74.8,71.9,76.0,72.7,70.0,97,93,77,29.95,29.81,9,1,11,0.04
2014-8-24,87.2,76.9,70.0,78.0,72.6,69.0,97,87,72,29.94,29.88,5,1,7,0.00
2014-8-25,79.2,72.0,67.2,78.0,70.3,66.0,97,94,81,30.03,29.88,8,0,17,0.71
2014-8-26,80.7,71.3,66.1,68.0,64.5,60.0,96,80,60,30.12,29.94,4,1,8,0.01
2014-8-27,78.7,69.6,62.1,64.0,61.1,58.0,94,75,54,30.12,30.04,4,1,6,0.00
2014-8-28,76.9,66.9,57.6,63.0,60.2,57.0,97,80,60,30.10,29.96,5,1,8,0.00
2014-8-29,86.1,74.7,63.3,75.0,69.0,61.0,97,83,68,29.96,29.75,9,1,14,0.00
2014-8-30,80.7,73.9,68.9,73.0,69.5,67.0,93,86,68,29.83,29.71,8,1,13,0.09
2014-8-31,87.3,74.9,63.3,71.0,67.7,62.0,98,80,54,29.87,29.74,5,1,8,0.00
2014-9-1,81.1,72.7,66.3,71.0,68.2,65.0,96,86,64,29.78,29.57,8,1,15,0.33
2014-9-2,79.7,68.7,59.7,66.0,61.9,59.0,98,81,54,29.90,29.77,4,1,10,0.01
2014-9-3,84.3,71.3,57.6,68.0,62.7,56.0,96,76,51,29.97,29.83,5,1,14,0.00
2014-9-4,86.0,75.7,68.2,75.0,69.7,66.0,94,82,66,29.88,29.75,9,2,16,0.57
2014-9-5,80.1,73.4,61.9,75.0,66.2,56.0,90,78,57,30.04,29.79,10,2,15,0.00
2014-9-6,76.4,64.5,53.9,58.0,54.3,51.0,93,72,47,30.15,30.04,5,1,12,0.00
2014-9-7,82.2,66.0,52.2,61.0,56.5,51.0,97,75,44,30.16,30.05,3,0,6,0.00
2014-9-8,76.9,65.8,54.1,60.0,56.6,53.0,94,74,50,30.08,29.92,5,1,11,0.00
2014-9-9,81.9,69.6,58.5,67.0,62.3,56.0,93,79,56,29.93,29.77,4,0,10,0.00
2014-9-10,76.8,66.6,51.5,72.0,63.0,46.0,96,88,77,29.87,29.41,12,3,23,0.37
2014-9-11,52.5,49.6,47.1,46.0,43.8,42.0,87,80,74,30.29,29.88,8,2,13,0.00
2014-9-12,49.0,45.7,42.0,45.0,43.1,41.0,95,91,86,30.37,30.28,9,1,9,0.14
2014-9-13,60.2,47.6,40.0,44.0,41.2,39.0,96,81,50,30.36,30.27,5,1,10,0.01
2014-9-14,66.9,53.7,39.8,50.0,45.2,39.0,97,75,51,30.31,30.11,5,1,13,0.00
2014-9-15,56.8,52.3,46.6,53.0,49.4,45.0,96,90,84,30.16,30.07,5,1,8,0.03
2014-9-16,66.3,52.5,39.1,51.0,44.8,38.0,97,78,47,30.20,30.05,6,0,10,0.01
2014-9-17,71.9,56.0,40.8,52.0,47.6,40.0,97,77,48,30.04,29.93,4,0,9,0.00
2014-9-18,69.0,55.4,47.7,58.0,51.9,46.0,96,88,67,30.16,30.00,5,1,8,0.00
2014-9-19,75.8,64.4,52.8,57.0,54.1,52.0,97,72,44,30.14,29.82,7,1,21,0.00
2014-9-20,77.1,69.3,63.3,68.0,63.2,55.0,93,81,68,29.84,29.64,9,2,15,0.05
2014-9-21,65.1,58.9,50.1,62.0,51.6,45.0,94,78,54,30.12,29.64,11,3,21,0.00
2014-9-22,70.5,55.1,40.6,52.0,46.3,39.0,96,75,48,30.25,30.13,6,1,11,0.00
2014-9-23,76.7,60.4,46.8,55.0,51.0,45.0,94,74,43,30.29,30.20,5,0,8,0.00
2014-9-24,76.3,62.0,48.3,57.0,52.7,47.0,97,74,43,30.31,30.20,4,0,9,0.00
2014-9-25,79.4,65.2,54.9,57.0,54.4,52.0,93,72,40,30.25,30.16,6,0,8,0.00
2014-9-26,82.8,65.4,50.0,61.0,55.5,49.0,97,74,41,30.23,30.14,3,0,7,0.00
2014-9-27,82.9,67.0,54.3,62.0,57.5,53.0,96,74,45,30.22,30.10,4,0,7,0.00
2014-9-28,82.5,66.7,53.6,62.0,57.6,52.0,97,76,45,30.14,30.00,0,0,1,0.00
2014-9-29,83.7,63.4,51.2,64.0,56.1,49.0,95,80,44,30.00,29.87,8,2,17,0.01
2014-9-30,54.5,49.2,44.1,48.0,44.5,41.0,90,84,72,30.06,29.99,7,2,10,0.00
2014-10-1,71.2,59.2,49.2,57.0,52.3,47.0,94,79,60,30.00,29.83,7,1,10,0.00
2014-10-2,74.4,66.2,61.4,68.0,62.3,57.0,95,87,75,29.83,29.54,4,0,8,0.04
2014-10-3,64.6,53.1,43.2,63.0,47.4,33.0,95,81,63,29.72,29.46,11,4,22,0.78
2014-10-4,47.6,43.0,37.7,41.0,36.4,32.0,90,78,67,29.71,29.60,13,3,20,0.01
2014-10-5,53.8,46.0,34.5,40.0,35.0,32.0,92,67,44,29.69,29.57,6,2,13,0.00
2014-10-6,58.2,50.7,45.7,45.0,39.7,33.0,92,68,42,29.58,29.52,8,1,13,0.00
2014-10-7,64.7,54.2,46.4,49.0,44.0,39.0,88,70,48,29.80,29.54,6,1,11,0.00
2014-10-8,65.8,52.9,41.8,41.0,38.6,35.0,87,62,36,30.01,29.80,19,3,22,0.00
2014-10-9,59.4,49.4,39.1,39.0,34.5,32.0,86,59,36,30.12,30.01,6,1,10,0.00
2014-10-10,58.1,47.1,36.4,39.0,35.2,32.0,92,67,38,30.21,30.11,5,1,10,0.00
2014-10-11,62.2,45.3,30.7,42.0,35.0,30.0,96,72,37,30.25,30.12,5,0,7,0.00
2014-10-12,63.6,48.9,34.9,51.0,41.1,33.0,96,77,42,30.12,29.83,6,1,10,0.06
2014-10-13,65.1,58.4,52.6,64.0,56.9,51.0,97,94,83,29.84,29.43,4,1,11,1.05
2014-10-14,65.0,58.6,51.2,64.0,56.6,48.0,97,93,84,29.66,29.36,14,3,19,0.02
2014-10-15,54.1,51.2,49.6,53.0,49.8,48.0,96,95,90,29.85,29.65,9,3,20,0.08
2014-10-16,65.6,54.2,50.1,54.0,50.9,49.0,97,89,64,29.83,29.56,4,1,8,0.01
2014-10-17,59.5,53.1,48.5,52.0,48.5,43.0,95,84,72,29.87,29.50,14,4,25,0.01
2014-10-18,51.3,45.5,34.1,44.0,39.3,32.0,93,80,58,30.18,29.88,12,2,14,0.00
2014-10-19,58.4,45.5,32.0,45.0,39.9,31.0,97,82,60,30.17,29.81,5,1,11,0.00
2014-10-20,59.9,52.5,44.4,48.0,44.9,43.0,95,76,57,29.99,29.76,9,2,17,0.00
2014-10-21,51.2,45.6,34.2,45.0,39.6,33.0,94,80,71,30.27,29.99,9,2,14,0.00
2014-10-22,59.9,42.7,29.0,45.0,36.6,28.0,97,81,48,30.37,30.22,7,1,7,0.00
2014-10-23,57.8,46.5,33.5,51.0,43.0,32.0,97,88,64,30.22,30.01,6,0,9,0.11
2014-10-24,60.7,53.6,49.8,54.0,51.1,49.0,96,91,77,30.03,29.86,4,1,8,0.00
2014-10-25,68.2,59.2,49.4,55.0,42.3,30.0,97,60,25,29.94,29.84,13,3,24,0.00
2014-10-26,65.3,52.5,41.5,44.0,33.6,21.0,79,52,19,30.00,29.79,4,1,8,0.01
2014-10-27,77.0,63.6,50.2,63.0,54.1,41.0,85,72,60,29.79,29.48,5,1,12,0.00
2014-10-28,67.0,53.6,47.3,59.0,42.9,37.0,83,68,54,29.88,29.51,12,5,21,0.00
2014-10-29,48.6,43.6,33.7,37.0,34.1,31.0,91,70,59,30.12,29.88,13,4,17,0.00
2014-10-30,51.7,42.4,32.4,40.0,36.0,30.0,95,79,60,30.11,30.03,7,1,12,0.00
2014-10-31,46.2,37.2,33.0,38.0,26.6,21.0,93,66,51,30.43,30.04,18,6,24,0.00
2014-11-1,44.9,34.7,28.1,29.0,25.3,21.0,88,70,53,30.49,30.37,12,2,15,0.00
2014-11-2,53.0,40.5,26.3,34.0,28.5,25.0,95,66,38,30.38,30.11,8,2,15,0.00
2014-11-3,63.6,51.2,40.0,54.0,38.2,28.0,88,62,50,30.11,29.82,7,2,13,0.08
2014-11-4,58.0,50.4,44.1,57.0,44.3,37.0,95,80,61,29.99,29.74,11,4,18,0.07
2014-11-5,54.8,46.8,37.2,45.0,39.5,34.0,92,77,57,30.09,29.76,4,1,10,0.05
2014-11-6,47.2,40.2,36.1,44.0,34.7,28.0,93,81,68,30.22,29.74,15,4,23,0.03
2014-11-7,44.8,37.8,30.0,35.0,29.3,26.0,87,72,55,30.20,29.74,6,1,10,0.00
2014-11-8,45.3,41.3,37.0,39.0,31.6,27.0,90,70,50,29.94,29.68,16,4,22,0.06
2014-11-9,50.5,42.7,36.9,37.0,33.2,28.0,90,70,56,29.90,29.70,15,2,16,0.01
2014-11-10,60.1,48.6,37.3,47.0,42.5,35.0,93,81,62,29.81,29.45,6,1,13,0.00
2014-11-11,45.8,35.6,28.5,43.0,31.3,21.0,95,84,69,30.14,29.54,13,6,22,0.09
2014-11-12,29.2,26.0,22.6,21.0,17.4,15.0,78,70,59,30.29,30.14,13,5,18,0.00
2014-11-13,28.3,26.0,24.4,20.0,17.8,14.0,79,71,61,30.31,30.27,11,5,18,0.00
2014-11-14,26.3,22.7,14.6,19.0,15.7,12.0,89,75,59,30.37,30.30,7,2,13,0.00
2014-11-15,27.5,20.2,11.5,21.0,15.9,9.0,92,84,63,30.38,30.21,5,1,8,0.00
2014-11-16,30.8,23.5,11.3,26.0,19.9,6.0,92,86,78,30.21,29.89,6,2,13,0.00
2014-11-17,16.2,12.0,7.1,10.0,6.6,4.0,87,79,66,29.96,29.82,10,4,18,0.00
2014-11-18,18.6,14.3,8.2,11.0,7.4,4.0,83,74,64,30.09,29.95,11,5,19,0.00
2014-11-19,28.1,22.3,15.9,19.0,15.1,11.0,83,74,64,30.02,29.76,14,4,25,0.00
2014-11-20,24.8,19.0,12.9,14.0,8.1,2.0,84,64,41,30.35,29.96,14,5,19,0.00
2014-11-21,32.3,21.0,4.5,22.0,8.6,1.0,88,61,39,30.45,30.13,11,2,13,0.00
2014-11-22,49.1,40.2,32.0,48.0,38.2,21.0,97,92,63,30.12,29.75,5,1,9,0.01
2014-11-23,49.6,48.3,46.7,49.0,47.3,46.0,97,96,95,29.75,29.07,4,1,13,0.75
2014-11-24,46.7,34.3,21.5,46.0,33.5,20.0,98,96,94,29.77,29.02,10,4,16,0.10
2014-11-25,23.9,20.3,11.9,21.0,18.1,10.0,94,91,86,30.21,29.78,6,2,10,0.00
2014-11-26,23.2,16.8,9.7,22.0,15.2,8.0,94,93,92,30.26,30.15,5,1,7,0.00
2014-11-27,23.1,18.2,10.1,21.0,14.8,7.0,94,86,78,30.44,30.26,8,3,13,0.00
2014-11-28,32.4,23.3,11.7,31.0,19.8,9.0,93,86,74,30.39,29.84,6,1,12,0.00
2014-11-29,45.9,38.1,29.3,42.0,35.9,28.0,96,92,82,29.83,29.51,5,1,9,0.14
2014-11-30,43.0,31.4,18.3,42.0,27.3,9.0,97,85,67,30.37,29.56,12,3,19,0.01
2014-12-1,18.0,12.9,8.3,9.0,2.5,-2.0,75,63,55,30.72,30.38,13,3,16,0.00
2014-12-2,33.5,24.0,11.1,27.0,18.4,6.0,90,80,65,30.57,30.04,6,1,11,0.00
2014-12-3,33.8,27.3,21.9,23.0,17.8,12.0,87,69,50,30.38,30.02,13,3,17,0.00
2014-12-4,32.2,25.7,20.1,27.0,18.0,12.0,86,73,65,30.45,30.25,4,1,6,0.00
2014-12-5,38.0,33.9,30.8,34.0,30.8,27.0,93,88,83,30.28,30.17,3,0,6,0.00
2014-12-6,35.9,30.1,22.8,30.0,25.8,20.0,93,84,72,30.68,30.28,9,2,17,0.00
2014-12-7,36.7,28.5,19.5,30.0,22.6,18.0,94,80,57,30.66,30.25,8,1,11,0.00
2014-12-8,36.0,34.0,32.4,35.0,32.4,28.0,96,93,83,30.25,29.95,13,2,15,0.19
2014-12-9,34.8,32.3,28.3,33.0,29.2,25.0,96,88,80,30.43,30.12,13,3,15,0.00
2014-12-10,28.2,26.0,23.2,25.0,22.7,20.0,89,87,84,30.44,30.30,7,2,8,0.00
2014-12-11,31.4,25.4,22.2,26.0,22.5,20.0,92,88,80,30.30,30.23,7,2,10,0.00
2014-12-12,35.7,32.1,24.2,34.0,30.7,22.0,96,94,92,30.32,30.21,9,3,11,0.00
2014-12-13,42.6,38.6,33.8,42.0,37.9,33.0,98,97,95,30.22,30.04,8,2,9,0.00
2014-12-14,46.4,44.6,41.7,46.0,44.3,41.0,98,98,98,30.05,29.94,4,1,6,0.00
2014-12-15,46.6,44.9,43.0,46.0,44.4,43.0,98,98,97,29.93,29.63,4,1,10,0.10
2014-12-16,42.9,37.4,27.1,42.0,35.3,23.0,98,92,78,30.14,29.62,17,5,24,0.11
2014-12-17,26.5,24.5,19.9,21.0,18.8,16.0,85,79,75,30.32,30.14,14,4,17,0.00
2014-12-18,27.7,23.9,17.7,26.0,21.4,15.0,93,90,85,30.33,30.25,4,1,6,0.00
2014-12-19,28.3,26.9,23.4,23.0,22.1,20.0,89,82,76,30.33,30.27,4,1,8,0.00
2014-12-20,31.4,28.4,22.9,29.0,26.0,21.0,92,90,85,30.30,30.22,2,0,3,0.00
2014-12-21,36.7,34.4,31.0,34.0,31.9,29.0,94,90,86,30.22,29.96,9,2,14,0.00
2014-12-22,39.6,35.7,33.0,39.0,34.0,31.0,97,93,86,29.96,29.57,8,2,12,0.19
2014-12-23,43.8,41.1,38.1,43.0,39.0,36.0,98,92,84,29.73,29.49,5,2,18,0.24
2014-12-24,38.2,36.6,35.6,37.0,35.3,33.0,97,95,90,29.71,29.48,9,2,11,0.01
2014-12-25,43.1,37.3,33.3,36.0,33.1,30.0,91,85,74,29.95,29.61,7,3,15,0.00
2014-12-26,46.8,39.9,35.3,40.0,36.5,34.0,95,88,76,29.99,29.91,5,1,8,0.00
2014-12-27,48.2,38.2,29.6,47.0,35.2,24.0,97,89,76,30.11,29.83,11,4,23,0.04
2014-12-28,32.3,26.0,19.8,24.0,21.0,16.0,88,81,69,30.29,30.10,6,2,11,0.00
2014-12-29,27.1,21.5,11.9,23.0,13.9,7.0,88,73,59,30.58,30.29,10,3,11,0.00
2014-12-30,15.5,10.0,5.0,7.0,-0.6,-4.0,82,64,42,30.74,30.58,9,4,14,0.00
2014-12-31,18.4,10.6,0.8,10.0,1.5,-5.0,79,67,54,30.63,30.09,15,5,18,0.00
2015-1-1,31.3,22.5,14.5,21.0,15.1,9.0,81,73,63,30.14,29.92,11,4,16,0.00
2015-1-2,32.4,25.4,16.8,23.0,20.0,15.0,92,80,66,30.32,30.14,3,0,4,0.00